Вернуться в каталог

STARLINK-36874

АктивенСвязьSSO
NORAD 67981·PAYLOAD·🇺🇸 United States

Запущен Feb 25, 2026 с Vandenberg Space Force Base

Loading…

Ближайшие Пролёты (ближайшие 24 часа)

TLE

СвежийSource: CelesTrak SupGP

Эпоха: Sep 14, 2026, 21:11 UTC

1 67981C 26038W   26257.88312500  .00064338  00000+0  19976-2 0  2573
2 67981  97.2843 266.3651 0001593 101.0990   4.6386 15.33400199    16

Отслеживайте STARLINK-36874 в реальном времени с AllMySat

Download on the App Store